Location: Rounton
(54.4000°N, 1.3500°W)
Time: 03:31:34
(UTC+00:00)

Vanguard 1 - Pass Details

Date: 09 December 2021
Orbit: 652 x 3830 km, 34.2° (Epoch: 17 January)

Event Time Altitude Azimuth Distance (km) Brightness Sun altitude
Exits shadow 04:54:22 23° 235° (SW) 5,525 13.4 -27.5°
Maximum altitude 04:58:09 24° 222° (SW) 5,238 13.4 -27.0°
Drops below altitude 10° 05:10:15 10° 177° (S) 5,384 13.9 -25.2°
Sets 05:14:55 0° 164° (SSE) 5,916 14.3 -24.5°
